George, South Africa

3:06 AM SAST on May 25, 2017 (GMT +0200)
George

Weather History for FAGG - February, 2013

Change the Weather History Date:

Wednesday, February 27, 2013

  Actual Average Record
Temperature  
Mean Temperature 68 °F -  
Max Temperature 78 °F 73 °F 86 °F (2014)
Min Temperature 58 °F 57 °F 50 °F (2017)
Cooling Degree Days 3    
Growing Degree Days 18 (Base 50)    
Moisture  
Dew Point 61 °F    
Average Humidity 77    
Maximum Humidity 94    
Minimum Humidity 53    
Precipitation  
Precipitation 0.00 in - - ()
Sea Level Pressure  
Sea Level Pressure 29.83 in    
Wind  
Wind Speed 4 mph ()    
Max Wind Speed 10 mph    
Max Gust Speed -    
Visibility 7.1 miles    
Events      
Averages and records for this station are not official NWS values.
T = Trace of Precipitation, MM = Missing Value Source: Averaged Metar Reports

Daily Weather History Graph

Daily Weather History Graph

Search for Another Location

Airport or City:

Trip Planner

Search our weather history database for the weather conditions in past years. The results will help you decide how hot, cold, wet, or windy it might be!

Date:

Astronomy

Feb. 27, 2013 Rise Set
Actual Time 6:16 AM SAST 7:09 PM SAST
Civil Twilight 5:51 AM SAST 7:34 PM SAST
Nautical Twilight 5:20 AM SAST 8:04 PM SAST
Astronomical Twilight 4:49 AM SAST 8:35 PM SAST
Moon 7:52 PM SAST (2/27) 7:45 AM SAST (2/27)
Length of Visible Light 13h 43m
Length of Day
12h 52m
Full, 97% of the Moon is Illuminated
Feb 27
Full
Mar 4
Last Quarter
Mar 11
New
Mar 19
First Quarter
Mar 27
Full

Hourly Weather History & Observations

Time (SAST) Temp. Dew Point Humidity Pressure Visibility Wind Dir Wind Speed Gust Speed Precip Events Conditions
12:00 AM 64.4 °F 62.6 °F 94% 29.95 in 6.2 mi NW 3.5 mph - N/A   Scattered Clouds
1:00 AM 66.2 °F 62.6 °F 88% 29.95 in 6.2 mi North 2.3 mph - N/A   Mostly Cloudy
2:00 AM 64 °F 61 °F 85% 29.93 in 6 mi North 3.5 mph - -  
2:00 AM 64.4 °F 60.8 °F 88% 29.92 in - North 4.6 mph - N/A   Clear
3:00 AM 62.6 °F 60.8 °F 94% 29.89 in - North 3.5 mph - N/A   Clear
4:00 AM 60.8 °F 59.0 °F 94% 29.89 in - North 4.6 mph - N/A   Clear
5:00 AM 59 °F 56 °F 85% 29.89 in 4 mi West 3.5 mph - -   Haze
5:00 AM 59.0 °F 57.2 °F 94% 29.89 in 4.3 mi WSW 2.3 mph - N/A   Haze
6:00 AM 60.8 °F 55.4 °F 82% 29.86 in 6.2 mi Variable 2.3 mph - N/A   Partly Cloudy
7:00 AM 60.8 °F 57.2 °F 88% 29.86 in - NW 3.5 mph - N/A   Clear
8:00 AM 66 °F 60 °F 76% 29.88 in 12 mi NW 3.5 mph - -   Clear
8:00 AM 66.2 °F 60.8 °F 83% 29.86 in - NW 3.5 mph - N/A   Clear
9:00 AM 69.8 °F 62.6 °F 78% 29.86 in 6.2 mi WSW 4.6 mph - N/A   Partly Cloudy
10:00 AM 71.6 °F 60.8 °F 69% 29.86 in 6.2 mi SW 4.6 mph - N/A   Scattered Clouds
11:00 AM 74 °F 63 °F 60% 29.84 in 12 mi SSE 9.2 mph - -   Scattered Clouds
11:00 AM 73.4 °F 62.6 °F 69% 29.83 in 6.2 mi SSE 10.4 mph - N/A   Partly Cloudy
12:00 PM 75.2 °F 62.6 °F 65% 29.80 in 6.2 mi SSE 8.1 mph - N/A   Partly Cloudy
1:00 PM 75.2 °F 62.6 °F 65% 29.77 in 6.2 mi South 8.1 mph - N/A   Partly Cloudy
2:00 PM 77 °F 63 °F 53% 29.76 in 12 mi SE 5.8 mph - -   Scattered Clouds
2:00 PM 77.0 °F 62.6 °F 61% 29.74 in 6.2 mi Variable 5.8 mph - N/A   Partly Cloudy
3:00 PM 77.0 °F 62.6 °F 61% 29.74 in 6.2 mi South 9.2 mph - N/A   Partly Cloudy
4:00 PM 71.6 °F 64.4 °F 78% 29.74 in 6.2 mi SSE 9.2 mph - N/A   Scattered Clouds
5:00 PM 71 °F 63 °F 68% 29.71 in 12 mi SE 8.1 mph - -   Mostly Cloudy
5:00 PM 71.6 °F 62.6 °F 73% 29.71 in 6.2 mi SE 6.9 mph - N/A   Scattered Clouds
6:00 PM 71.6 °F 62.6 °F 73% 29.74 in 6.2 mi SE 5.8 mph - N/A   Mostly Cloudy
7:00 PM 69.8 °F 62.6 °F 78% 29.77 in 6.2 mi SSE 3.5 mph - N/A   Mostly Cloudy
8:00 PM 70 °F 63 °F 72% 29.78 in 12 mi ESE 3.5 mph - -   Mostly Cloudy
8:00 PM 69.8 °F 62.6 °F 78% 29.77 in 6.2 mi ESE 3.5 mph - N/A   Mostly Cloudy
9:00 PM 69.8 °F 62.6 °F 78% 29.80 in 6.2 mi NE 3.5 mph - N/A   Overcast
10:00 PM 69.8 °F 62.6 °F 78% 29.83 in 6.2 mi NNE 4.6 mph - N/A   Mostly Cloudy
11:00 PM 69.8 °F 60.8 °F 73% 29.83 in 6.2 mi NNE 3.5 mph - N/A   Mostly Cloudy